,,Stat5,,Stat1,,Stat2,,Stat3,,Stat4,,Wind1,,Wind1,
time,status,PA1M_AVG,status,PR1M_SUM,status,RH1M_AVG,status,SR1M_AVG,status,TA1M_AVG,status,W1dAve1m,status,W1sAve1m,
2003-02-16, 00:00:00,VALID,919.413,VALID,0,VALID,99.7434,VALID,0.0679233,VALID,18.3504,VALID,138,VALID,1.12861,
2003-02-16, 00:01:00,VALID,919.408,VALID,0,VALID,99.7307,VALID,0.0849042,VALID,18.3477,VALID,138,VALID,1.07095,
2003-02-16, 00:02:00,VALID,919.384,VALID,0,VALID,99.7332,VALID,0.0679233,VALID,18.341,VALID,139,VALID,0.837702,
2003-02-16, 00:03:00,VALID,919.365,VALID,0,VALID,99.7243,VALID,0.0679233,VALID,18.3407,VALID,144,VALID,0.913429,
2003-02-16, 00:04:00,VALID,919.346,VALID,0,VALID,99.7281,VALID,0.0679233,VALID,18.3447,VALID,140,VALID,0.994866,
2003-02-16, 00:05:00,VALID,919.35,VALID,0,VALID,99.7307,VALID,0,VALID,18.3488,VALID,139,VALID,0.508049,
2003-02-16, 00:06:00,VALID,919.344,VALID,0,VALID,99.7358,VALID,-0.0849042,VALID,18.3426,VALID,125,VALID,0.386719,
2003-02-16, 00:07:00,VALID,919.331,VALID,0,VALID,99.7294,VALID,-0.0339617,VALID,18.3391,VALID,131,VALID,0.789286,
2003-02-16, 00:08:00,VALID,919.328,VALID,0,VALID,99.7358,VALID,-0.0339617,VALID,18.329,VALID,130,VALID,0.426136,
2003-02-16, 00:09:00,VALID,919.304,VALID,0,VALID,99.7281,VALID,-0.0339617,VALID,18.3327,VALID,136,VALID,0.844595,
2003-02-16, 00:10:00,VALID,919.288,VALID,0,VALID,99.7154,VALID,-0.0339617,VALID,18.3391,VALID,116,VALID,0.513327,
2003-02-16, 00:11:00,VALID,919.277,VALID,0,VALID,99.7256,VALID,-0.0339617,VALID,18.3421,VALID,108,VALID,0.407197,
2003-02-16, 00:12:00,VALID,919.252,VALID,0,VALID,99.7154,VALID,-0.0679233,VALID,18.3359,VALID,139,VALID,0.560764,
2003-02-16, 00:13:00,VALID,919.252,VALID,0,VALID,99.7167,VALID,-0.0509425,VALID,18.3421,VALID,128,VALID,0.459821,
2003-02-16, 00:14:00,VALID,919.235,VALID,0,VALID,99.7091,VALID,-0.0169808,VALID,18.3394,VALID,103,VALID,0.945549,
2003-02-16, 00:15:00,VALID,919.224,VALID,0,VALID,99.7129,VALID,-0.0339617,VALID,18.3357,VALID,79,VALID,0.776182,
2003-02-16, 00:16:00,VALID,919.21,VALID,0,VALID,99.7078,VALID,-0.0339617,VALID,18.3352,VALID,83,VALID,0.586627,
2003-02-16, 00:17:00,VALID,919.206,VALID,0,VALID,99.6951,VALID,-0.0339617,VALID,18.3419,VALID,91,VALID,0.234375,
2003-02-16, 00:18:00,VALID,919.209,VALID,0,VALID,99.6989,VALID,-0.0169808,VALID,18.3387,VALID,95,VALID,0.127821,
2003-02-16, 00:19:00,VALID,919.197,VALID,0,VALID,99.704,VALID,-0.0169808,VALID,18.3426,VALID,95,VALID,0.283036,
2003-02-16, 00:20:00,VALID,919.197,VALID,0,VALID,99.7027,VALID,0.0169808,VALID,18.3359,VALID,84,VALID,0.75071,
2003-02-16, 00:21:00,VALID,919.179,VALID,0,VALID,99.704,VALID,0.0339617,VALID,18.3218,VALID,79,VALID,0.616554,
2003-02-16, 00:22:00,VALID,919.164,VALID,0,VALID,99.6938,VALID,0.0339617,VALID,18.3186,VALID,88,VALID,0.789063,
2003-02-16, 00:23:00,VALID,919.147,VALID,0,VALID,99.6874,VALID,0.0509425,VALID,18.3126,VALID,90,VALID,1.09943,
2003-02-16, 00:24:00,VALID,919.135,VALID,0,VALID,99.6824,VALID,0.0339617,VALID,18.2957,VALID,71,VALID,1.01128,
2003-02-16, 00:25:00,VALID,919.132,VALID,0,VALID,99.6735,VALID,0.0169808,VALID,18.2897,VALID,73,VALID,0.908929,
2003-02-16, 00:26:00,VALID,919.122,VALID,0,VALID,99.6824,VALID,0,VALID,18.2897,VALID,79,VALID,0.72964,
2003-02-16, 00:27:00,VALID,919.115,VALID,0,VALID,99.6696,VALID,0.0339617,VALID,18.2696,VALID,83,VALID,0.819046,
2003-02-16, 00:28:00,VALID,919.1,VALID,0,VALID,99.6773,VALID,0.0169808,VALID,18.2733,VALID,81,VALID,0.727711,
2003-02-16, 00:29:00,VALID,919.095,VALID,0,VALID,99.6874,VALID,0.0679233,VALID,18.2671,VALID,70,VALID,0.820549,
2003-02-16, 00:30:00,VALID,919.092,VALID,0,VALID,99.6938,VALID,0.0339617,VALID,18.2706,VALID,62,VALID,0.913628,
2003-02-16, 00:31:00,VALID,919.085,VALID,0,VALID,99.7027,VALID,0.0339617,VALID,18.2736,VALID,62,VALID,0.668304,
2003-02-16, 00:32:00,VALID,919.089,VALID,0,VALID,99.69,VALID,0.0169808,VALID,18.2636,VALID,73,VALID,0.685843,
2003-02-16, 00:33:00,VALID,919.083,VALID,0,VALID,99.7078,VALID,0.0169808,VALID,18.2636,VALID,83,VALID,0.762247,
2003-02-16, 00:34:00,VALID,919.078,VALID,0,VALID,99.7078,VALID,0.0509425,VALID,18.257,VALID,83,VALID,1.05538,
2003-02-16, 00:35:00,VALID,919.064,VALID,0,VALID,99.7205,VALID,0.0169808,VALID,18.2602,VALID,78,VALID,1.05019,
2003-02-16, 00:36:00,VALID,919.083,VALID,0,VALID,99.7319,VALID,0.0169808,VALID,18.2833,VALID,73,VALID,0.842882,
2003-02-16, 00:37:00,VALID,919.075,VALID,0,VALID,99.7472,VALID,0.0339617,VALID,18.2865,VALID,63,VALID,0.81317,
2003-02-16, 00:38:00,VALID,919.074,VALID,0,VALID,99.7434,VALID,0,VALID,18.2895,VALID,59,VALID,0.653883,
2003-02-16, 00:39:00,VALID,919.074,VALID,0,VALID,99.7345,VALID,0,VALID,18.293,VALID,58,VALID,0.554688,
2003-02-16, 00:40:00,VALID,919.061,VALID,0,VALID,99.7345,VALID,0.0169808,VALID,18.2934,VALID,58,VALID,0.409926,
2003-02-16, 00:41:00,VALID,919.06,VALID,0,VALID,99.7294,VALID,0.0169808,VALID,18.2932,VALID,53,VALID,0.363163,
2003-02-16, 00:42:00,VALID,919.078,VALID,0,VALID,99.7243,VALID,0,VALID,18.2833,VALID,41,VALID,0.385417,
2003-02-16, 00:43:00,VALID,919.073,VALID,0,VALID,99.7332,VALID,0.0339617,VALID,18.2865,VALID,39,VALID,0.432589,
2003-02-16, 00:44:00,VALID,919.072,VALID,0,VALID,99.7294,VALID,0,VALID,18.2766,VALID,38,VALID,0.53267,
2003-02-16, 00:45:00,VALID,919.08,VALID,0,VALID,99.7294,VALID,0.0169808,VALID,18.2671,VALID,31,VALID,0.637035,
2003-02-16, 00:46:00,VALID,919.076,VALID,0,VALID,99.718,VALID,0.0339617,VALID,18.238,VALID,27,VALID,0.53125,
2003-02-16, 00:47:00,VALID,919.07,VALID,0,VALID,99.7256,VALID,0,VALID,18.2283,VALID,27,VALID,0.37571,
2003-02-16, 00:48:00,VALID,919.075,VALID,0,VALID,99.7218,VALID,0,VALID,18.2223,VALID,347,VALID,0.597439,
2003-02-16, 00:49:00,VALID,919.076,VALID,0,VALID,99.7421,VALID,0,VALID,18.2089,VALID,330,VALID,0.507143,
2003-02-16, 00:50:00,VALID,919.07,VALID,0,VALID,99.7497,VALID,0,VALID,18.2189,VALID,323,VALID,0.714725,
2003-02-16, 00:51:00,VALID,919.065,VALID,0,VALID,99.751,VALID,0,VALID,18.2122,VALID,313,VALID,0.459037,
2003-02-16, 00:52:00,VALID,919.057,VALID,0,VALID,99.7625,VALID,0.0169808,VALID,18.241,VALID,291,VALID,0.0870864,
2003-02-16, 00:53:00,VALID,919.035,VALID,0,VALID,99.7815,VALID,0.0339617,VALID,18.244,VALID,304,VALID,0.109848,
2003-02-16, 00:54:00,VALID,919.02,VALID,0,VALID,99.7892,VALID,0,VALID,18.2443,VALID,340,VALID,0.257378,
2003-02-16, 00:55:00,VALID,919.007,VALID,0,VALID,99.7879,VALID,0.0509425,VALID,18.251,VALID,342,VALID,0.0830357,
2003-02-16, 00:56:00,VALID,918.999,VALID,0,VALID,99.7968,VALID,0,VALID,18.2606,VALID,345,VALID,0.134943,
2003-02-16, 00:57:00,VALID,918.983,VALID,0,VALID,99.7968,VALID,0,VALID,18.26,VALID,349,VALID,0.173986,
2003-02-16, 00:58:00,VALID,918.981,VALID,0,VALID,99.793,VALID,0.0339617,VALID,18.2636,VALID,349,VALID,0.0372243,
2003-02-16, 00:59:00,VALID,918.976,VALID,0,VALID,99.793,VALID,-0.0169808,VALID,18.2641,VALID,349,VALID,0,
2003-02-16, 01:00:00,VALID,918.972,VALID,0,VALID,99.7993,VALID,0,VALID,18.2512,VALID,349,VALID,0,
2003-02-16, 01:01:00,VALID,918.974,VALID,0,VALID,99.793,VALID,0,VALID,18.2378,VALID,349,VALID,0,
2003-02-16, 01:02:00,VALID,918.976,VALID,0,VALID,99.8044,VALID,0,VALID,18.2249,VALID,349,VALID,0,
2003-02-16, 01:03:00,VALID,918.958,VALID,0,VALID,99.8019,VALID,0.0339617,VALID,18.2283,VALID,356,VALID,0.0137247,
2003-02-16, 01:04:00,VALID,918.956,VALID,0,VALID,99.8095,VALID,0.0169808,VALID,18.2216,VALID,91,VALID,0.462086,
2003-02-16, 01:05:00,VALID,918.941,VALID,0,VALID,99.8121,VALID,0.0169808,VALID,18.2253,VALID,114,VALID,0.526278,
2003-02-16, 01:06:00,VALID,918.944,VALID,0,VALID,99.7993,VALID,0,VALID,18.2055,VALID,144,VALID,0.806424,
2003-02-16, 01:07:00,VALID,918.919,VALID,0,VALID,99.8044,VALID,0.0169808,VALID,18.2156,VALID,150,VALID,0.907143,
2003-02-16, 01:08:00,VALID,918.932,VALID,0,VALID,99.8171,VALID,0.0169808,VALID,18.199,VALID,149,VALID,0.91785,
2003-02-16, 01:09:00,VALID,918.927,VALID,0,VALID,99.8248,VALID,0.0339617,VALID,18.199,VALID,148,VALID,0.743243,
2003-02-16, 01:10:00,VALID,918.932,VALID,0,VALID,99.8235,VALID,0,VALID,18.2062,VALID,143,VALID,0.658318,
2003-02-16, 01:11:00,VALID,918.931,VALID,0,VALID,99.8349,VALID,0,VALID,18.2159,VALID,132,VALID,0.664063,
2003-02-16, 01:12:00,VALID,918.933,VALID,0,VALID,99.8324,VALID,0.0339617,VALID,18.2156,VALID,117,VALID,0.497179,
2003-02-16, 01:13:00,VALID,918.934,VALID,0,VALID,99.8349,VALID,0.0339617,VALID,18.2186,VALID,104,VALID,0.615402,
2003-02-16, 01:14:00,VALID,918.934,VALID,0,VALID,99.8324,VALID,0.0169808,VALID,18.2119,VALID,99,VALID,0.585938,
2003-02-16, 01:15:00,VALID,918.92,VALID,0,VALID,99.8388,VALID,0.0339617,VALID,18.2186,VALID,99,VALID,0.457137,
2003-02-16, 01:16:00,VALID,918.928,VALID,0,VALID,99.8286,VALID,0.0169808,VALID,18.2092,VALID,100,VALID,0.474494,
2003-02-16, 01:17:00,VALID,918.911,VALID,0,VALID,99.8324,VALID,0.0169808,VALID,18.2126,VALID,127,VALID,0.499053,
2003-02-16, 01:18:00,VALID,918.923,VALID,0,VALID,99.8235,VALID,0.0169808,VALID,18.2152,VALID,129,VALID,0.394748,
2003-02-16, 01:19:00,VALID,918.921,VALID,0,VALID,99.8235,VALID,0.0169808,VALID,18.2221,VALID,126,VALID,0.647545,
2003-02-16, 01:20:00,VALID,918.911,VALID,0,VALID,99.8362,VALID,0.0169808,VALID,18.2283,VALID,123,VALID,0.794744,
2003-02-16, 01:21:00,VALID,918.91,VALID,0,VALID,99.8324,VALID,0,VALID,18.2544,VALID,120,VALID,0.845228,
2003-02-16, 01:22:00,VALID,918.908,VALID,0,VALID,99.8337,VALID,0.0169808,VALID,18.2671,VALID,122,VALID,0.724954,
2003-02-16, 01:23:00,VALID,918.901,VALID,0,VALID,99.8286,VALID,0,VALID,18.2835,VALID,132,VALID,0.427557,
2003-02-16, 01:24:00,VALID,918.899,VALID,0,VALID,99.821,VALID,0,VALID,18.2865,VALID,133,VALID,0.45204,
2003-02-16, 01:25:00,VALID,918.898,VALID,0.2,VALID,99.8159,VALID,0,VALID,18.2897,VALID,131,VALID,0.515402,
2003-02-16, 01:26:00,VALID,918.891,VALID,0,VALID,99.8197,VALID,0,VALID,18.2934,VALID,132,VALID,0.51089,
2003-02-16, 01:27:00,VALID,918.872,VALID,0,VALID,99.8286,VALID,0,VALID,18.29,VALID,131,VALID,0.47424,
2003-02-16, 01:28:00,VALID,918.872,VALID,0,VALID,99.821,VALID,-0.0509425,VALID,18.2967,VALID,126,VALID,0.38534,
2003-02-16, 01:29:00,VALID,918.866,VALID,0,VALID,99.8159,VALID,-0.0169808,VALID,18.2867,VALID,129,VALID,0.458333,
2003-02-16, 01:30:00,VALID,918.86,VALID,0,VALID,99.8222,VALID,0,VALID,18.293,VALID,133,VALID,0.212457,
2003-02-16, 01:31:00,VALID,918.852,VALID,0,VALID,99.8057,VALID,-0.0169808,VALID,18.293,VALID,115,VALID,0.399554,
2003-02-16, 01:32:00,VALID,918.844,VALID,0,VALID,99.826,VALID,0,VALID,18.2897,VALID,107,VALID,0.60322,
2003-02-16, 01:33:00,VALID,918.831,VALID,0,VALID,99.8082,VALID,-0.0169808,VALID,18.287,VALID,107,VALID,0.356208,
2003-02-16, 01:34:00,VALID,918.835,VALID,0,VALID,99.807,VALID,0,VALID,18.2703,VALID,107,VALID,0.295496,
2003-02-16, 01:35:00,VALID,918.835,VALID,0,VALID,99.8095,VALID,0,VALID,18.2572,VALID,107,VALID,0.476799,
2003-02-16, 01:36:00,VALID,918.814,VALID,0,VALID,99.8248,VALID,0,VALID,18.2673,VALID,117,VALID,0.519965,
2003-02-16, 01:37:00,VALID,918.798,VALID,0,VALID,99.8171,VALID,0,VALID,18.2766,VALID,115,VALID,0.645312,
2003-02-16, 01:38:00,VALID,918.784,VALID,0,VALID,99.8311,VALID,0.0169808,VALID,18.2865,VALID,102,VALID,0.755208,
2003-02-16, 01:39:00,VALID,918.766,VALID,0,VALID,99.8133,VALID,0,VALID,18.2763,VALID,85,VALID,0.828336,
2003-02-16, 01:40:00,VALID,918.734,VALID,0,VALID,99.8133,VALID,0,VALID,18.2768,VALID,71,VALID,0.856847,
2003-02-16, 01:41:00,VALID,918.724,VALID,0,VALID,99.8082,VALID,0.0339617,VALID,18.2636,VALID,71,VALID,0.952888,
2003-02-16, 01:42:00,VALID,918.71,VALID,0,VALID,99.8082,VALID,0,VALID,18.2445,VALID,82,VALID,0.995877,
2003-02-16, 01:43:00,VALID,918.685,VALID,0,VALID,99.8095,VALID,0,VALID,18.2212,VALID,80,VALID,0.872991,
2003-02-16, 01:44:00,VALID,918.68,VALID,0,VALID,99.8133,VALID,0.0169808,VALID,18.2184,VALID,76,VALID,0.758759,
2003-02-16, 01:45:00,VALID,918.669,VALID,0,VALID,99.8057,VALID,0,VALID,18.2152,VALID,65,VALID,0.496622,
2003-02-16, 01:46:00,VALID,918.667,VALID,0,VALID,99.8133,VALID,0,VALID,18.2221,VALID,59,VALID,0.435432,
2003-02-16, 01:47:00,VALID,918.655,VALID,0,VALID,99.8171,VALID,0,VALID,18.2221,VALID,59,VALID,0.461648,
2003-02-16, 01:48:00,VALID,918.642,VALID,0,VALID,99.8032,VALID,0,VALID,18.2159,VALID,59,VALID,0.407769,
2003-02-16, 01:49:00,VALID,918.63,VALID,0,VALID,99.7993,VALID,0,VALID,18.2094,VALID,59,VALID,0.403348,
2003-02-16, 01:50:00,VALID,918.624,VALID,0,VALID,99.7955,VALID,0.0169808,VALID,18.1962,VALID,59,VALID,0.377367,
2003-02-16, 01:51:00,VALID,918.619,VALID,0,VALID,99.8095,VALID,0,VALID,18.1898,VALID,62,VALID,0.489654,
2003-02-16, 01:52:00,VALID,918.598,VALID,0,VALID,99.7993,VALID,-0.0169808,VALID,18.157,VALID,74,VALID,0.48966,
2003-02-16, 01:53:00,VALID,918.593,VALID,0,VALID,99.8082,VALID,-0.0169808,VALID,18.1704,VALID,89,VALID,0.473485,
2003-02-16, 01:54:00,VALID,918.589,VALID,0,VALID,99.8108,VALID,0,VALID,18.1699,VALID,115,VALID,0.498915,
2003-02-16, 01:55:00,VALID,918.574,VALID,0,VALID,99.7993,VALID,0,VALID,18.1732,VALID,128,VALID,0.48683,
2003-02-16, 01:56:00,VALID,918.56,VALID,0,VALID,99.821,VALID,0,VALID,18.1965,VALID,128,VALID,0.5625,
2003-02-16, 01:57:00,VALID,918.554,VALID,0,VALID,99.8121,VALID,0,VALID,18.1859,VALID,118,VALID,0.604519,
2003-02-16, 01:58:00,VALID,918.535,VALID,0,VALID,99.8235,VALID,0.0169808,VALID,18.2057,VALID,117,VALID,0.346737,
2003-02-16, 01:59:00,VALID,918.526,VALID,0,VALID,99.8197,VALID,0,VALID,18.2122,VALID,120,VALID,0.523911,
2003-02-16, 02:00:00,VALID,918.515,VALID,0,VALID,99.8146,VALID,0,VALID,18.202,VALID,118,VALID,0.27322,
2003-02-16, 02:01:00,VALID,918.501,VALID,0,VALID,99.8197,VALID,-0.0169808,VALID,18.2089,VALID,118,VALID,0.256473,
2003-02-16, 02:02:00,VALID,918.502,VALID,0,VALID,99.8222,VALID,0,VALID,18.2094,VALID,118,VALID,0.373343,
2003-02-16, 02:03:00,VALID,918.486,VALID,0,VALID,99.807,VALID,0,VALID,18.2027,VALID,116,VALID,0.486698,
2003-02-16, 02:04:00,VALID,918.473,VALID,0,VALID,99.7955,VALID,0,VALID,18.2023,VALID,116,VALID,0.482767,
2003-02-16, 02:05:00,VALID,918.442,VALID,0,VALID,99.8121,VALID,0,VALID,18.1962,VALID,114,VALID,0.66659,
2003-02-16, 02:06:00,VALID,918.442,VALID,0,VALID,99.8108,VALID,0,VALID,18.1995,VALID,107,VALID,0.572917,
2003-02-16, 02:07:00,VALID,918.449,VALID,0,VALID,99.8019,VALID,0,VALID,18.2253,VALID,88,VALID,0.662946,
2003-02-16, 02:08:00,VALID,918.432,VALID,0,VALID,99.8019,VALID,0,VALID,18.2152,VALID,86,VALID,0.729877,
2003-02-16, 02:09:00,VALID,918.417,VALID,0,VALID,99.8082,VALID,0.0169808,VALID,18.2154,VALID,88,VALID,0.609797,
2003-02-16, 02:10:00,VALID,918.397,VALID,0,VALID,99.8019,VALID,0,VALID,18.2119,VALID,88,VALID,0.460938,
2003-02-16, 02:11:00,VALID,918.387,VALID,0,VALID,99.8006,VALID,0,VALID,18.2256,VALID,88,VALID,0.453125,
2003-02-16, 02:12:00,VALID,918.365,VALID,0,VALID,99.7917,VALID,0,VALID,18.2186,VALID,88,VALID,0.566406,
2003-02-16, 02:13:00,VALID,918.35,VALID,0,VALID,99.7892,VALID,0,VALID,18.2055,VALID,88,VALID,0.535268,
2003-02-16, 02:14:00,VALID,918.352,VALID,0,VALID,99.7879,VALID,0,VALID,18.199,VALID,88,VALID,0.505682,
2003-02-16, 02:15:00,VALID,918.338,VALID,0,VALID,99.793,VALID,0,VALID,18.2092,VALID,88,VALID,0.414274,
2003-02-16, 02:16:00,VALID,918.337,VALID,0,VALID,99.8006,VALID,0,VALID,18.2154,VALID,92,VALID,0.466222,
2003-02-16, 02:17:00,VALID,918.319,VALID,0,VALID,99.8019,VALID,0,VALID,18.2057,VALID,107,VALID,0.371686,
2003-02-16, 02:18:00,VALID,918.323,VALID,0,VALID,99.8108,VALID,0,VALID,18.2219,VALID,127,VALID,0.39974,
2003-02-16, 02:19:00,VALID,918.318,VALID,0,VALID,99.8184,VALID,0.0169808,VALID,18.238,VALID,113,VALID,0.44375,
2003-02-16, 02:20:00,VALID,918.321,VALID,0,VALID,99.8133,VALID,-0.0169808,VALID,18.2353,VALID,120,VALID,0.522017,
2003-02-16, 02:21:00,VALID,918.304,VALID,0,VALID,99.8235,VALID,-0.0509425,VALID,18.2327,VALID,129,VALID,0.634079,
2003-02-16, 02:22:00,VALID,918.29,VALID,0,VALID,99.8146,VALID,-0.0339617,VALID,18.2424,VALID,112,VALID,0.592371,
2003-02-16, 02:23:00,VALID,918.282,VALID,0,VALID,99.8248,VALID,-0.0509425,VALID,18.2463,VALID,123,VALID,0.784091,
2003-02-16, 02:24:00,VALID,918.28,VALID,0,VALID,99.8171,VALID,-0.0339617,VALID,18.2295,VALID,120,VALID,0.792318,
2003-02-16, 02:25:00,VALID,918.272,VALID,0.2,VALID,99.8171,VALID,-0.0339617,VALID,18.2327,VALID,112,VALID,0.652455,
2003-02-16, 02:26:00,VALID,918.263,VALID,0,VALID,99.8171,VALID,-0.0509425,VALID,18.2258,VALID,118,VALID,0.81108,
2003-02-16, 02:27:00,VALID,918.257,VALID,0,VALID,99.8235,VALID,-0.0509425,VALID,18.2424,VALID,105,VALID,0.616132,
2003-02-16, 02:28:00,VALID,918.248,VALID,0,VALID,99.821,VALID,-0.0679233,VALID,18.2362,VALID,113,VALID,0.777344,
2003-02-16, 02:29:00,VALID,918.234,VALID,0,VALID,99.8171,VALID,-0.0849042,VALID,18.2426,VALID,118,VALID,0.699811,
2003-02-16, 02:30:00,VALID,918.24,VALID,0,VALID,99.8171,VALID,-0.0509425,VALID,18.2491,VALID,125,VALID,0.560764,
2003-02-16, 02:31:00,VALID,918.235,VALID,0,VALID,99.8121,VALID,-0.0339617,VALID,18.2424,VALID,123,VALID,0.648214,
2003-02-16, 02:32:00,VALID,918.229,VALID,0,VALID,99.8095,VALID,-0.0509425,VALID,18.259,VALID,118,VALID,0.604167,
2003-02-16, 02:33:00,VALID,918.214,VALID,0,VALID,99.8197,VALID,-0.0849042,VALID,18.2583,VALID,111,VALID,0.586782,
2003-02-16, 02:34:00,VALID,918.213,VALID,0,VALID,99.8133,VALID,-0.0679233,VALID,18.2653,VALID,119,VALID,0.664292,
2003-02-16, 02:35:00,VALID,918.205,VALID,0,VALID,99.8082,VALID,-0.0339617,VALID,18.2678,VALID,121,VALID,0.469697,
2003-02-16, 02:36:00,VALID,918.199,VALID,0,VALID,99.8146,VALID,0.0509425,VALID,18.2604,VALID,101,VALID,0.703993,
2003-02-16, 02:37:00,VALID,918.201,VALID,0,VALID,99.8095,VALID,0.0509425,VALID,18.2671,VALID,94,VALID,0.712277,
2003-02-16, 02:38:00,VALID,918.205,VALID,0.2,VALID,99.8082,VALID,0.0509425,VALID,18.2708,VALID,105,VALID,0.777225,
2003-02-16, 02:39:00,VALID,918.197,VALID,0,VALID,99.8032,VALID,0,VALID,18.2703,VALID,115,VALID,0.808277,
2003-02-16, 02:40:00,VALID,918.202,VALID,0,VALID,99.7968,VALID,0.0169808,VALID,18.2763,VALID,112,VALID,0.561811,
2003-02-16, 02:41:00,VALID,918.198,VALID,0,VALID,99.7993,VALID,0.0169808,VALID,18.2895,VALID,132,VALID,0.561316,
2003-02-16, 02:42:00,VALID,918.185,VALID,0,VALID,99.7904,VALID,0.0339617,VALID,18.3059,VALID,111,VALID,0.458116,
2003-02-16, 02:43:00,VALID,918.195,VALID,0,VALID,99.7955,VALID,0.0339617,VALID,18.3089,VALID,118,VALID,0.337277,
2003-02-16, 02:44:00,VALID,918.184,VALID,0,VALID,99.7993,VALID,0.0339617,VALID,18.3121,VALID,115,VALID,0.554214,
2003-02-16, 02:45:00,VALID,918.186,VALID,0,VALID,99.7968,VALID,0.0169808,VALID,18.3156,VALID,128,VALID,0.228252,
2003-02-16, 02:46:00,VALID,918.175,VALID,0,VALID,99.7892,VALID,0.0509425,VALID,18.3382,VALID,126,VALID,0.432675,
2003-02-16, 02:47:00,VALID,918.167,VALID,0,VALID,99.8032,VALID,0.0339617,VALID,18.3384,VALID,122,VALID,0.164536,
2003-02-16, 02:48:00,VALID,918.159,VALID,0.2,VALID,99.7917,VALID,0.0169808,VALID,18.3352,VALID,122,VALID,0.347656,
2003-02-16, 02:49:00,VALID,918.149,VALID,0,VALID,99.793,VALID,0.0679233,VALID,18.3412,VALID,123,VALID,0.39308,
2003-02-16, 02:50:00,VALID,918.139,VALID,0,VALID,99.7904,VALID,0,VALID,18.3223,VALID,126,VALID,0.669508,
2003-02-16, 02:51:00,VALID,918.131,VALID,0,VALID,99.7828,VALID,-0.0509425,VALID,18.323,VALID,127,VALID,0.738809,
2003-02-16, 02:52:00,VALID,918.124,VALID,0,VALID,99.7904,VALID,-0.0849042,VALID,18.3234,VALID,131,VALID,0.392233,
2003-02-16, 02:53:00,VALID,918.113,VALID,0,VALID,99.7943,VALID,-0.0679233,VALID,18.3297,VALID,137,VALID,0.490057,
2003-02-16, 02:54:00,VALID,918.109,VALID,0,VALID,99.7892,VALID,0,VALID,18.3193,VALID,105,VALID,0.594835,
2003-02-16, 02:55:00,VALID,918.097,VALID,0,VALID,99.7828,VALID,-0.0169808,VALID,18.3123,VALID,116,VALID,0.889063,
2003-02-16, 02:56:00,VALID,918.094,VALID,0,VALID,99.7879,VALID,-0.0339617,VALID,18.313,VALID,104,VALID,0.630919,
2003-02-16, 02:57:00,VALID,918.102,VALID,0.2,VALID,99.7892,VALID,-0.0509425,VALID,18.3103,VALID,108,VALID,0.612965,
2003-02-16, 02:58:00,VALID,918.084,VALID,0,VALID,99.7892,VALID,-0.0679233,VALID,18.3133,VALID,114,VALID,0.825827,
2003-02-16, 02:59:00,VALID,918.07,VALID,0,VALID,99.7866,VALID,-0.0679233,VALID,18.3234,VALID,113,VALID,0.871686,
2003-02-16, 03:00:00,VALID,918.063,VALID,0,VALID,99.7904,VALID,-0.0339617,VALID,18.3103,VALID,125,VALID,0.669705,
2003-02-16, 03:01:00,VALID,918.059,VALID,0,VALID,99.7879,VALID,-0.0679233,VALID,18.3202,VALID,122,VALID,0.720536,
2003-02-16, 03:02:00,VALID,918.067,VALID,0,VALID,99.7917,VALID,-0.0169808,VALID,18.3197,VALID,123,VALID,0.823864,
2003-02-16, 03:03:00,VALID,918.063,VALID,0,VALID,99.793,VALID,-0.0339617,VALID,18.3137,VALID,100,VALID,0.54413,
2003-02-16, 03:04:00,VALID,918.051,VALID,0,VALID,99.7917,VALID,-0.0849042,VALID,18.307,VALID,93,VALID,0.455193,
2003-02-16, 03:05:00,VALID,918.044,VALID,0,VALID,99.7879,VALID,-0.0509425,VALID,18.3003,VALID,121,VALID,0.773674,
2003-02-16, 03:06:00,VALID,918.039,VALID,0,VALID,99.7803,VALID,-0.0849042,VALID,18.307,VALID,113,VALID,0.644531,
2003-02-16, 03:07:00,VALID,918.029,VALID,0,VALID,99.7841,VALID,-0.0339617,VALID,18.3105,VALID,111,VALID,0.782589,
2003-02-16, 03:08:00,VALID,918.021,VALID,0.2,VALID,99.7752,VALID,0,VALID,18.3003,VALID,103,VALID,0.735085,
2003-02-16, 03:09:00,VALID,918.014,VALID,0,VALID,99.7714,VALID,0,VALID,18.2971,VALID,108,VALID,0.715794,
2003-02-16, 03:10:00,VALID,918.003,VALID,0,VALID,99.7688,VALID,-0.0509425,VALID,18.3038,VALID,105,VALID,0.623162,
2003-02-16, 03:11:00,VALID,917.997,VALID,0,VALID,99.7599,VALID,-0.0169808,VALID,18.3036,VALID,122,VALID,0.567708,
2003-02-16, 03:12:00,VALID,917.989,VALID,0,VALID,99.7574,VALID,-0.0169808,VALID,18.3036,VALID,126,VALID,0.636719,
2003-02-16, 03:13:00,VALID,917.976,VALID,0,VALID,99.7612,VALID,0,VALID,18.3001,VALID,126,VALID,0.551116,
2003-02-16, 03:14:00,VALID,917.969,VALID,0,VALID,99.7548,VALID,-0.0169808,VALID,18.3036,VALID,125,VALID,0.726326,
2003-02-16, 03:15:00,VALID,917.965,VALID,0,VALID,99.7574,VALID,-0.0509425,VALID,18.3103,VALID,119,VALID,0.663851,
2003-02-16, 03:16:00,VALID,917.945,VALID,0,VALID,99.7472,VALID,-0.0679233,VALID,18.3006,VALID,116,VALID,0.851563,
2003-02-16, 03:17:00,VALID,917.939,VALID,0,VALID,99.751,VALID,-0.0169808,VALID,18.2937,VALID,109,VALID,0.808002,
2003-02-16, 03:18:00,VALID,917.929,VALID,0,VALID,99.7396,VALID,-0.0339617,VALID,18.2872,VALID,105,VALID,0.863498,
2003-02-16, 03:19:00,VALID,917.92,VALID,0,VALID,99.7472,VALID,-0.0509425,VALID,18.2943,VALID,104,VALID,0.760938,
2003-02-16, 03:20:00,VALID,917.908,VALID,0,VALID,99.7434,VALID,-0.0679233,VALID,18.2946,VALID,111,VALID,0.76089,
2003-02-16, 03:21:00,VALID,917.902,VALID,0,VALID,99.7536,VALID,-0.0849042,VALID,18.2876,VALID,111,VALID,0.70038,
2003-02-16, 03:22:00,VALID,917.882,VALID,0,VALID,99.7459,VALID,-0.0679233,VALID,18.2879,VALID,110,VALID,0.886719,
2003-02-16, 03:23:00,VALID,917.874,VALID,0,VALID,99.7485,VALID,-0.0679233,VALID,18.2814,VALID,111,VALID,0.776278,
2003-02-16, 03:24:00,VALID,917.853,VALID,0.2,VALID,99.7434,VALID,-0.0679233,VALID,18.2842,VALID,113,VALID,0.817274,
2003-02-16, 03:25:00,VALID,917.853,VALID,0,VALID,99.7459,VALID,-0.0509425,VALID,18.274,VALID,111,VALID,0.541295,
2003-02-16, 03:26:00,VALID,917.853,VALID,0,VALID,99.7536,VALID,-0.0509425,VALID,18.2745,VALID,113,VALID,0.556818,
2003-02-16, 03:27:00,VALID,917.839,VALID,0,VALID,99.7625,VALID,-0.0679233,VALID,18.2814,VALID,119,VALID,0.714316,
2003-02-16, 03:28:00,VALID,917.814,VALID,0,VALID,99.7599,VALID,-0.101885,VALID,18.2722,VALID,120,VALID,0.723346,
2003-02-16, 03:29:00,VALID,917.801,VALID,0,VALID,99.7675,VALID,-0.0849042,VALID,18.265,VALID,124,VALID,0.854167,
2003-02-16, 03:30:00,VALID,917.786,VALID,0,VALID,99.7701,VALID,-0.0849042,VALID,18.265,VALID,125,VALID,0.665582,
2003-02-16, 03:31:00,VALID,917.779,VALID,0,VALID,99.7625,VALID,-0.0679233,VALID,18.2553,VALID,114,VALID,0.763393,
2003-02-16, 03:32:00,VALID,917.772,VALID,0,VALID,99.7714,VALID,-0.101885,VALID,18.262,VALID,114,VALID,0.824574,
2003-02-16, 03:33:00,VALID,917.755,VALID,0,VALID,99.765,VALID,-0.101885,VALID,18.2653,VALID,118,VALID,1.01204,
2003-02-16, 03:34:00,VALID,917.744,VALID,0,VALID,99.7739,VALID,-0.0679233,VALID,18.2588,VALID,126,VALID,0.801471,
2003-02-16, 03:35:00,VALID,917.725,VALID,0,VALID,99.7688,VALID,-0.0509425,VALID,18.2449,VALID,122,VALID,1.01018,